Weather History for Phoenix-Mesa Gateway Airport, AZ

Change the Weather History Date:

Sunday, November 10, 2013

  Actual Average Record
Temperature  
Mean Temperature 68 °F -  
Max Temperature 84 °F 73 °F 86 °F (2001)
Min Temperature 51 °F 49 °F 37 °F (1998)
Cooling Degree Days 2    
Growing Degree Days 18 (Base 50)    
Moisture  
Dew Point 34 °F    
Average Humidity 37    
Maximum Humidity 50    
Minimum Humidity 16    
Precipitation  
Precipitation 0.00 in - - ()
Sea Level Pressure  
Sea Level Pressure 30.06 in    
Wind  
Wind Speed 5 mph (ESE)    
Max Wind Speed 9 mph    
Max Gust Speed -    
Visibility 13 miles    
Events      
Averages and records for this station are not official NWS values.
T = Trace of Precipitation, MM = Missing Value Source: NWS Daily Summary

Daily Weather History Graph

Daily Weather History Graph

Search for Another Location

Airport:

Trip Planner

Search our weather history database for the weather conditions in past years. The results will help you decide how hot, cold, wet, or windy it might be!

Date:

Astronomy

Nov. 10, 2013 Rise Set
Actual Time 6:53 AM MST 5:27 PM MST
Civil Twilight 6:27 AM MST 5:53 PM MST
Nautical Twilight 5:57 AM MST 6:23 PM MST
Astronomical Twilight 5:28 AM MST 6:52 PM MST
Moon 1:15 PM MST (11/10) No Moon Set
Length of Visible Light 11h 26m
Length of Day
10h 33m
First Quarter, 56% of the Moon is Illuminated
Nov 10
First Quarter
Nov 17
Full
Nov 25
Last Quarter
Dec 2
New
Dec 9
First Quarter

Hourly Weather History & Observations

Time (MST) Temp. Dew Point Humidity Pressure Visibility Wind Dir Wind Speed Gust Speed Precip Events Conditions
12:15 AM 55.4 °F 33.8 °F 44% 30.07 in 10.0 mi ESE 4.6 mph - N/A   Clear
12:35 AM 55.4 °F 33.8 °F 44% 30.08 in 10.0 mi ESE 4.6 mph - N/A   Clear
12:55 AM 53.6 °F 33.8 °F 47% 30.08 in 10.0 mi SE 4.6 mph - N/A   Clear
1:15 AM 55.4 °F 32.0 °F 41% 30.08 in 10.0 mi SE 5.8 mph - N/A   Clear
1:35 AM 53.6 °F 33.8 °F 47% 30.08 in 10.0 mi SSE 6.9 mph - N/A   Clear
1:55 AM 51.8 °F 33.8 °F 50% 30.08 in 10.0 mi SE 5.8 mph - N/A   Clear
2:15 AM 53.6 °F 33.8 °F 47% 30.08 in 10.0 mi East 6.9 mph - N/A   Clear
2:35 AM 55.4 °F 32.0 °F 41% 30.08 in 10.0 mi East 4.6 mph - N/A   Clear
2:55 AM 53.6 °F 30.2 °F 41% 30.08 in 10.0 mi East 6.9 mph - N/A   Clear
3:15 AM 51.8 °F 30.2 °F 44% 30.08 in 10.0 mi East 6.9 mph - N/A   Clear
3:35 AM 51.8 °F 30.2 °F 44% 30.08 in 10.0 mi East 6.9 mph - N/A   Clear
3:55 AM 53.6 °F 30.2 °F 41% 30.08 in 10.0 mi East 8.1 mph - N/A   Clear
4:15 AM 55.4 °F 30.2 °F 38% 30.08 in 10.0 mi ESE 8.1 mph - N/A   Clear
4:35 AM 55.4 °F 30.2 °F 38% 30.08 in 10.0 mi ESE 8.1 mph - N/A   Clear
4:47 AM 55.4 °F 28.4 °F 36% 30.08 in 20.0 mi East 5.8 mph - N/A   Scattered Clouds
4:55 AM 55.4 °F 30.2 °F 38% 30.08 in 10.0 mi East 6.9 mph - N/A   Clear
5:15 AM 51.8 °F 30.2 °F 44% 30.08 in 10.0 mi East 5.8 mph - N/A   Clear
5:35 AM 51.8 °F 30.2 °F 44% 30.09 in 10.0 mi East 4.6 mph - N/A   Clear
5:47 AM 53.6 °F 30.2 °F 41% 30.09 in 20.0 mi East 4.6 mph - N/A   Scattered Clouds
6:49 AM 53.6 °F 33.8 °F 47% 30.11 in 20.0 mi SE 8.1 mph - N/A   Mostly Cloudy
7:47 AM 55.4 °F 32.0 °F 41% 30.13 in 45.0 mi East 4.6 mph - N/A   Mostly Cloudy
9:47 AM 66.2 °F 32.0 °F 28% 30.14 in 35.0 mi East 5.8 mph - N/A   Mostly Cloudy
10:47 AM 73.4 °F 35.6 °F 25% 30.12 in 35.0 mi Calm Calm - N/A   Mostly Cloudy
11:51 AM 75.2 °F 32.0 °F 21% 30.10 in 35.0 mi West 4.6 mph - N/A   Mostly Cloudy
12:47 PM 78.8 °F 35.6 °F 21% 30.07 in 35.0 mi West 6.9 mph - N/A   Mostly Cloudy
1:47 PM 80.6 °F 33.8 °F 18% 30.05 in 35.0 mi WSW 8.1 mph - N/A   Mostly Cloudy
2:47 PM 84.2 °F 33.8 °F 16% 30.03 in 35.0 mi WNW 9.2 mph - N/A   Mostly Cloudy
3:47 PM 82.4 °F 32.0 °F 16% 30.02 in 45.0 mi NW 6.9 mph - N/A   Mostly Cloudy
4:47 PM 80.6 °F 33.8 °F 18% 30.02 in 45.0 mi WNW 5.8 mph - N/A   Mostly Cloudy
5:47 PM 77.0 °F 37.4 °F 24% 30.02 in 20.0 mi NNW 5.8 mph - N/A   Mostly Cloudy
6:47 PM 73.4 °F 37.4 °F 27% 30.03 in 20.0 mi Calm Calm - N/A   Mostly Cloudy
7:50 PM 71.6 °F 39.2 °F 31% 30.04 in 20.0 mi Calm Calm - N/A   Mostly Cloudy
7:55 PM 69.8 °F 37.4 °F 31% 30.04 in 10.0 mi Calm Calm - N/A   Clear
8:15 PM 66.2 °F 35.6 °F 32% 30.04 in 10.0 mi Calm Calm - N/A   Clear
8:35 PM 64.4 °F 35.6 °F 34% 30.04 in 10.0 mi Calm Calm - N/A   Clear
8:48 PM 66.2 °F 37.4 °F 35% 30.04 in 20.0 mi Calm Calm - N/A   Mostly Cloudy
8:55 PM 66.2 °F 35.6 °F 32% 30.04 in 10.0 mi Calm Calm - N/A   Clear
9:15 PM 64.4 °F 35.6 °F 34% 30.04 in 10.0 mi Calm Calm - N/A   Clear
9:35 PM 60.8 °F 37.4 °F 42% 30.05 in 10.0 mi SSW 3.5 mph - N/A   Clear
9:47 PM 60.8 °F 37.4 °F 42% 30.05 in 20.0 mi Calm Calm - N/A   Mostly Cloudy
9:55 PM 60.8 °F 37.4 °F 42% 30.05 in 10.0 mi Calm Calm - N/A   Clear
10:15 PM 60.8 °F 37.4 °F 42% 30.05 in 10.0 mi SW 3.5 mph - N/A   Clear
10:35 PM 62.6 °F 37.4 °F 39% 30.04 in 10.0 mi WSW 3.5 mph - N/A   Clear
10:55 PM 62.6 °F 37.4 °F 39% 30.04 in 20.0 mi Calm Calm - N/A   Clear
11:15 PM 59.0 °F 35.6 °F 42% 30.05 in 10.0 mi Calm Calm - N/A   Clear
11:35 PM 57.2 °F 35.6 °F 44% 30.04 in 10.0 mi Calm Calm - N/A   Clear
11:47 PM 57.2 °F 35.6 °F 44% 30.05 in 20.0 mi Calm Calm - N/A   Clear
11:55 PM 57.2 °F 35.6 °F 44% 30.05 in 10.0 mi Calm Calm - N/A   Clear